sat.trackr.live / text

‹ back to catalog

STARLINK-33673

NORAD 63284 · 2025-053V

PAYLOAD ACTIVE UNKNOWN

§ Identity

Operator
Country
US
Launch date
2025-03-15
Launch site
AFETR
Launch vehicle
Mass (kg)
RCS (m²)

Purposes: comms

External: N2YO · Heavens-Above · Gunter

§ Orbital elements

Epoch: 2026-09-19T05:39:26.741088Z

Period
94.27 min
Inclination
42.9986°
Eccentricity
0.0001483
Mean motion
15.27588286 rev/d
Perigee alt
482.0 km
Apogee alt
484.0 km
Semi-major
6,861.2 km
B*
5.2135e-4
RAAN
220.9408°
Arg perigee
262.3284°
Mean anomaly
97.7399°
Rev number
8,599

§ Raw data

STARLINK-336731 63284U 25053V   26262.23572617  .00014115  00000+0  52135-3 0  99992 63284  42.9986 220.9408 0001483 262.3284  97.7399 15.27588286 85998

JSON: /api/v1/satellites/63284 · /tle

For live sub-satellite position, see the globe view (requires WebGL).

§ Visibility from observer

Set your observer location to see the next 7 days of passes ≥ 10°. The values pass through the URL so the page stays shareable.

No JS? Fill the form by hand. The geolocation button needs JavaScript.